Date,TemperatureHighF,TemperatureAvgF,TemperatureLowF,DewpointHighF,DewpointAvgF,DewpointLowF,HumidityHigh,HumidityAvg,HumidityLow,PressureMaxIn,PressureMinIn,WindSpeedMaxMPH,WindSpeedAvgMPH,GustSpeedMaxMPH,PrecipitationSumIn
2013-3-1,30.7,27.6,24.6,22.8,19.6,15.7,84,71,59,30.01,29.91,15,7,15,0.00
2013-3-2,37.2,27.9,22.8,20.6,17.4,13.1,84,66,39,30.06,29.96,17,5,17,0.00
2013-3-3,60.8,42.5,23.2,30.7,23.2,15.4,78,49,28,29.96,29.59,17,5,17,0.00
2013-3-4,68.9,54.4,41.9,46.9,38.3,29.9,85,55,38,29.62,29.41,21,6,21,0.00
2013-3-5,43.5,36.9,29.3,34.2,24.9,16.2,96,64,42,30.06,29.62,31,13,31,0.11
2013-3-6,49.8,34.9,21.2,25.5,19.4,14.7,77,55,30,30.15,30.00,18,5,18,0.00
2013-3-7,65.1,48.4,32.4,32.2,24.7,18.5,75,44,18,30.04,29.92,14,5,14,0.00
2013-3-8,65.5,51.1,37.8,37.5,33.9,30.4,82,55,32,30.02,29.83,14,7,14,0.00
2013-3-9,70.0,58.5,51.4,57.1,46.6,36.1,99,67,38,29.85,29.50,20,7,20,1.55
2013-3-10,56.3,44.0,28.2,56.0,43.3,26.5,99,98,84,29.71,29.47,28,8,28,0.92
2013-3-11,43.7,32.2,25.7,29.0,23.4,19.0,93,72,41,29.81,29.66,23,10,23,0.00
2013-3-12,57.6,41.6,27.5,29.5,23.8,15.9,83,53,22,30.08,29.80,21,6,21,0.00
2013-3-13,53.8,38.1,23.7,23.1,17.5,8.3,77,47,19,30.22,30.07,14,3,14,0.00
2013-3-14,70.9,54.1,36.1,41.8,29.1,12.9,62,39,27,30.13,29.89,24,6,24,0.00
2013-3-15,79.9,64.8,49.8,48.2,44.2,37.9,81,51,23,29.91,29.60,23,7,23,0.00
2013-3-16,80.1,63.5,47.7,52.5,45.6,40.1,76,53,34,29.66,29.56,19,6,19,0.00
2013-3-17,47.3,41.3,38.7,41.1,39.4,38.0,99,93,75,29.67,29.47,20,8,20,0.14
2013-3-18,55.0,44.6,37.9,42.8,36.9,26.1,99,77,38,29.83,29.48,16,5,16,0.02
2013-3-19,59.2,44.3,32.0,30.0,23.4,14.6,77,48,21,30.02,29.81,15,4,15,0.00
2013-3-20,46.8,37.1,29.1,30.1,20.0,7.1,90,56,22,30.11,29.88,21,5,21,0.00
2013-3-21,42.1,33.0,29.3,31.9,19.3,6.4,99,62,23,29.88,29.60,15,5,15,0.07
2013-3-22,35.8,33.4,30.2,35.0,33.0,30.0,99,98,97,29.71,29.60,11,4,11,0.25
2013-3-23,38.3,35.8,33.6,38.0,35.4,33.3,99,98,97,29.70,29.49,14,6,14,0.02
2013-3-24,39.0,31.7,25.2,38.8,28.8,17.0,99,89,65,29.87,29.40,34,12,34,0.06
2013-3-25,32.7,26.5,21.4,23.2,18.5,14.2,78,72,58,30.08,29.84,22,10,22,0.00
2013-3-26,45.7,31.0,18.1,24.2,19.9,14.0,90,66,33,30.17,30.06,17,4,17,0.00
2013-3-27,61.5,53.4,30.0,33.4,24.4,17.8,68,34,21,30.08,29.92,12,5,12,0.00
2013-3-28,70.7,62.5,49.3,48.1,44.2,28.5,68,52,39,30.00,29.91,14,6,14,0.00
2013-3-29,71.8,59.4,50.9,55.6,51.5,46.8,99,76,52,29.99,29.89,11,3,11,0.07
2013-3-30,70.7,58.6,51.8,57.1,54.0,51.1,99,86,56,29.91,29.68,17,5,17,0.46
2013-3-31,70.2,60.4,48.6,53.7,43.5,31.4,99,57,26,29.78,29.68,15,5,15,0.06